Time,TemperatureF,DewpointF,PressureIn,WindDirection,WindDirectionDegrees,WindSpeedMPH,WindSpeedGustMPH,Humidity,HourlyPrecipIn,Conditions,Clouds,dailyrainin,SoftwareType,DateUTC
2013-05-29 00:01:00,66.0,48.0,-100.00,North,5,-999.0,-999.0,52,-99.99,,,-99.99,,2013-05-29 07:01:00,
2013-05-29 00:11:00,66.0,48.0,-100.00,North,5,-999.0,-999.0,52,-99.99,,,-99.99,,2013-05-29 07:11:00,
2013-05-29 00:21:00,66.0,48.0,-100.00,NNE,27,-999.0,-999.0,53,-99.99,,,-99.99,,2013-05-29 07:21:00,
2013-05-29 00:34:00,66.0,48.0,-100.00,NNE,27,-999.0,-999.0,53,-99.99,,,-99.99,,2013-05-29 07:34:00,
2013-05-29 00:42:00,66.0,48.0,-100.00,NNE,27,-999.0,-999.0,53,-99.99,,,-99.99,,2013-05-29 07:42:00,
2013-05-29 00:52:00,65.0,48.0,-100.00,North,11,-999.0,-999.0,55,-99.99,,,-99.99,,2013-05-29 07:52:00,
2013-05-29 01:02:00,65.0,48.0,-100.00,North,11,-999.0,-999.0,55,-99.99,,,-99.99,,2013-05-29 08:02:00,
2013-05-29 01:11:00,65.0,48.0,-100.00,North,11,-999.0,-999.0,55,-99.99,,,-99.99,,2013-05-29 08:11:00,
2013-05-29 01:21:00,62.0,48.0,-100.00,NNE,17,-999.0,-999.0,61,-99.99,,,-99.99,,2013-05-29 08:21:00,
2013-05-29 01:32:00,62.0,48.0,-100.00,NNE,17,-999.0,-999.0,61,-99.99,,,-99.99,,2013-05-29 08:32:00,
2013-05-29 01:41:00,62.0,48.0,-100.00,NNE,17,-999.0,-999.0,61,-99.99,,,-99.99,,2013-05-29 08:41:00,
2013-05-29 01:51:00,64.0,48.0,-100.00,NNE,13,-999.0,-999.0,56,-99.99,,,-99.99,,2013-05-29 08:51:00,
2013-05-29 02:01:00,64.0,48.0,-100.00,NNE,13,-999.0,-999.0,56,-99.99,,,-99.99,,2013-05-29 09:01:00,
2013-05-29 02:11:00,64.0,48.0,-100.00,NNE,13,-999.0,-999.0,56,-99.99,,,-99.99,,2013-05-29 09:11:00,
2013-05-29 02:21:00,64.0,48.0,-100.00,NNE,19,-999.0,-999.0,57,-99.99,,,-99.99,,2013-05-29 09:21:00,
2013-05-29 02:33:00,64.0,48.0,-100.00,NNE,19,-999.0,-999.0,57,-99.99,,,-99.99,,2013-05-29 09:33:00,
2013-05-29 02:42:00,64.0,48.0,-100.00,NNE,19,-999.0,-999.0,57,-99.99,,,-99.99,,2013-05-29 09:42:00,
2013-05-29 02:52:00,63.0,51.0,-100.00,NNE,26,-999.0,-999.0,64,-99.99,,,-99.99,,2013-05-29 09:52:00,
2013-05-29 03:02:00,63.0,51.0,-100.00,NNE,26,-999.0,-999.0,64,-99.99,,,-99.99,,2013-05-29 10:02:00,
2013-05-29 03:12:00,63.0,51.0,-100.00,NNE,26,-999.0,-999.0,64,-99.99,,,-99.99,,2013-05-29 10:12:00,
2013-05-29 03:22:00,63.0,51.0,-100.00,North,-999,-999.0,-999.0,65,-99.99,,,-99.99,,2013-05-29 10:22:00,
2013-05-29 03:32:00,63.0,51.0,-100.00,North,-999,-999.0,-999.0,65,-99.99,,,-99.99,,2013-05-29 10:32:00,
2013-05-29 03:42:00,63.0,51.0,-100.00,North,-999,-999.0,-999.0,65,-99.99,,,-99.99,,2013-05-29 10:42:00,
2013-05-29 03:52:00,61.0,50.0,-100.00,NNE,23,-999.0,-999.0,68,-99.99,,,0.00,,2013-05-29 10:52:00,
2013-05-29 04:02:00,61.0,50.0,-100.00,NNE,23,-999.0,-999.0,68,-99.99,,,0.00,,2013-05-29 11:02:00,
2013-05-29 04:11:00,61.0,50.0,-100.00,NNE,23,-999.0,-999.0,68,-99.99,,,0.00,,2013-05-29 11:11:00,
2013-05-29 04:21:00,61.0,50.0,-100.00,NNE,22,-999.0,-999.0,68,-99.99,,,-99.99,,2013-05-29 11:21:00,
2013-05-29 04:32:00,61.0,50.0,-100.00,NNE,22,-999.0,-999.0,68,-99.99,,,-99.99,,2013-05-29 11:32:00,
2013-05-29 04:42:00,61.0,50.0,-100.00,NNE,22,-999.0,-999.0,68,-99.99,,,-99.99,,2013-05-29 11:42:00,
2013-05-29 04:51:00,61.0,50.0,-100.00,NNE,29,3.0,-999.0,68,-99.99,,,-99.99,,2013-05-29 11:51:00,
2013-05-29 05:01:00,61.0,50.0,-100.00,NNE,29,3.0,-999.0,68,-99.99,,,-99.99,,2013-05-29 12:01:00,
2013-05-29 05:11:00,61.0,50.0,-100.00,NNE,29,3.0,-999.0,68,-99.99,,,-99.99,,2013-05-29 12:11:00,
2013-05-29 05:21:00,60.0,50.0,-100.00,NNE,16,-999.0,-999.0,69,-99.99,,,-99.99,,2013-05-29 12:21:00,
2013-05-29 05:32:00,60.0,50.0,-100.00,NNE,16,-999.0,-999.0,69,-99.99,,,-99.99,,2013-05-29 12:32:00,
2013-05-29 05:42:00,60.0,50.0,-100.00,NNE,16,-999.0,-999.0,69,-99.99,,,-99.99,,2013-05-29 12:42:00,
2013-05-29 05:51:00,58.0,50.0,-100.00,NNE,17,-999.0,-999.0,74,-99.99,,,-99.99,,2013-05-29 12:51:00,
2013-05-29 06:01:00,58.0,50.0,-100.00,NNE,17,-999.0,-999.0,74,-99.99,,,-99.99,,2013-05-29 13:01:00,
2013-05-29 06:11:00,58.0,50.0,-100.00,NNE,17,-999.0,-999.0,74,-99.99,,,-99.99,,2013-05-29 13:11:00,
2013-05-29 06:21:00,61.0,49.0,-100.00,NNE,18,-999.0,-999.0,64,-99.99,,,-99.99,,2013-05-29 13:21:00,
2013-05-29 06:31:00,61.0,49.0,-100.00,NNE,18,-999.0,-999.0,64,-99.99,,,-99.99,,2013-05-29 13:31:00,
2013-05-29 06:42:00,61.0,49.0,-100.00,NNE,18,-999.0,-999.0,64,-99.99,,,-99.99,,2013-05-29 13:42:00,
2013-05-29 06:52:00,62.0,48.0,-100.00,NNE,21,-999.0,-999.0,61,-99.99,,,-99.99,,2013-05-29 13:52:00,
2013-05-29 07:02:00,62.0,48.0,-100.00,NNE,21,-999.0,-999.0,61,-99.99,,,-99.99,,2013-05-29 14:02:00,
2013-05-29 07:11:00,62.0,48.0,-100.00,NNE,21,-999.0,-999.0,61,-99.99,,,-99.99,,2013-05-29 14:11:00,
2013-05-29 07:21:00,63.0,48.0,-100.00,NNE,20,-999.0,-999.0,59,-99.99,,,-99.99,,2013-05-29 14:21:00,
2013-05-29 07:32:00,63.0,48.0,-100.00,NNE,20,-999.0,-999.0,59,-99.99,,,-99.99,,2013-05-29 14:32:00,
2013-05-29 07:41:00,63.0,48.0,-100.00,NNE,20,-999.0,-999.0,59,-99.99,,,-99.99,,2013-05-29 14:41:00,
2013-05-29 07:52:00,68.0,54.0,-100.00,South,183,-999.0,-999.0,61,-99.99,,,-99.99,,2013-05-29 14:52:00,
2013-05-29 08:21:00,69.0,55.0,-100.00,ENE,68,-999.0,-999.0,60,-99.99,,,-99.99,,2013-05-29 15:21:00,
2013-05-29 08:53:00,73.0,57.0,-100.00,SSE,147,-999.0,-999.0,57,-99.99,,,-99.99,,2013-05-29 15:53:00,
2013-05-29 09:22:00,75.0,58.0,-100.00,SSW,204,-999.0,-999.0,56,-99.99,,,-99.99,,2013-05-29 16:22:00,
2013-05-29 09:52:00,77.0,60.0,-100.00,SSW,197,-999.0,-999.0,55,-99.99,,,-99.99,,2013-05-29 16:52:00,
2013-05-29 10:22:00,79.0,60.0,-100.00,South,184,-999.0,-999.0,52,-99.99,,,-99.99,,2013-05-29 17:22:00,
2013-05-29 10:52:00,82.0,60.0,-100.00,SW,216,-999.0,-999.0,48,-99.99,,,-99.99,,2013-05-29 17:52:00,
2013-05-29 11:22:00,79.0,58.0,-100.00,West,262,-999.0,-999.0,49,-99.99,,,-99.99,,2013-05-29 18:22:00,
2013-05-29 11:32:00,79.0,58.0,-100.00,West,262,-999.0,-999.0,49,-99.99,,,-99.99,,2013-05-29 18:32:00,
2013-05-29 11:42:00,79.0,58.0,-100.00,West,262,-999.0,-999.0,49,-99.99,,,-99.99,,2013-05-29 18:42:00,
2013-05-29 11:51:00,79.0,58.0,-100.00,West,279,-999.0,-999.0,48,-99.99,,,-99.99,,2013-05-29 18:51:00,
2013-05-29 12:01:00,79.0,58.0,-100.00,West,279,-999.0,-999.0,48,-99.99,,,-99.99,,2013-05-29 19:01:00,
2013-05-29 12:11:00,79.0,58.0,-100.00,West,279,-999.0,-999.0,48,-99.99,,,-99.99,,2013-05-29 19:11:00,
2013-05-29 12:21:00,81.0,56.0,-100.00,WSW,241,-999.0,-999.0,43,-99.99,,,-99.99,,2013-05-29 19:21:00,
2013-05-29 12:32:00,81.0,56.0,-100.00,WSW,241,-999.0,-999.0,43,-99.99,,,-99.99,,2013-05-29 19:32:00,
2013-05-29 12:44:00,81.0,56.0,-100.00,WSW,241,-999.0,-999.0,43,-99.99,,,-99.99,,2013-05-29 19:44:00,
2013-05-29 12:52:00,81.0,55.0,-100.00,West,260,-999.0,-999.0,41,-99.99,,,-99.99,,2013-05-29 19:52:00,
2013-05-29 13:02:00,81.0,55.0,-100.00,West,260,-999.0,-999.0,41,-99.99,,,-99.99,,2013-05-29 20:02:00,
2013-05-29 13:11:00,81.0,55.0,-100.00,West,260,-999.0,-999.0,41,-99.99,,,-99.99,,2013-05-29 20:11:00,
2013-05-29 13:22:00,83.0,53.0,-100.00,SW,222,-999.0,-999.0,36,-99.99,,,-99.99,,2013-05-29 20:22:00,
2013-05-29 13:32:00,83.0,53.0,-100.00,SW,222,-999.0,-999.0,36,-99.99,,,-99.99,,2013-05-29 20:32:00,
2013-05-29 13:42:00,83.0,53.0,-100.00,SW,222,-999.0,-999.0,36,-99.99,,,-99.99,,2013-05-29 20:42:00,
2013-05-29 13:52:00,80.0,51.0,-100.00,WSW,250,-999.0,-999.0,37,-99.99,,,-99.99,,2013-05-29 20:52:00,
2013-05-29 14:02:00,80.0,51.0,-100.00,WSW,250,-999.0,-999.0,37,-99.99,,,-99.99,,2013-05-29 21:02:00,
2013-05-29 14:12:00,80.0,51.0,-100.00,WSW,250,-999.0,-999.0,37,-99.99,,,-99.99,,2013-05-29 21:12:00,
2013-05-29 14:22:00,79.0,50.0,-100.00,WSW,248,-999.0,-999.0,36,-99.99,,,-99.99,,2013-05-29 21:22:00,
2013-05-29 14:33:00,79.0,50.0,-100.00,WSW,248,-999.0,-999.0,36,-99.99,,,-99.99,,2013-05-29 21:33:00,
2013-05-29 14:43:00,79.0,50.0,-100.00,WSW,248,-999.0,-999.0,36,-99.99,,,-99.99,,2013-05-29 21:43:00,
2013-05-29 14:53:00,78.0,52.0,-100.00,SW,220,-999.0,-999.0,40,-99.99,,,-99.99,,2013-05-29 21:53:00,
2013-05-29 15:03:00,78.0,52.0,-100.00,SW,220,-999.0,-999.0,40,-99.99,,,-99.99,,2013-05-29 22:03:00,
2013-05-29 15:12:00,78.0,52.0,-100.00,SW,220,-999.0,-999.0,40,-99.99,,,-99.99,,2013-05-29 22:12:00,
2013-05-29 15:23:00,77.0,52.0,-100.00,WNW,288,-999.0,-999.0,42,-99.99,,,-99.99,,2013-05-29 22:23:00,
2013-05-29 15:33:00,77.0,52.0,-100.00,WNW,288,-999.0,-999.0,42,-99.99,,,-99.99,,2013-05-29 22:33:00,
2013-05-29 15:42:00,77.0,52.0,-100.00,WNW,288,-999.0,-999.0,42,-99.99,,,-99.99,,2013-05-29 22:42:00,
2013-05-29 15:53:00,79.0,-99.9,-100.00,WNW,301,-999.0,-999.0,-999,-99.99,,,0.00,,2013-05-29 22:53:00,
2013-05-29 16:02:00,79.0,-99.9,-100.00,WNW,301,-999.0,-999.0,-999,-99.99,,,0.00,,2013-05-29 23:02:00,
2013-05-29 16:12:00,79.0,-99.9,-100.00,WNW,301,-999.0,-999.0,-999,-99.99,,,0.00,,2013-05-29 23:12:00,
2013-05-29 16:21:00,79.0,53.0,-100.00,North,1,-999.0,-999.0,40,-99.99,,,-99.99,,2013-05-29 23:21:00,
2013-05-29 16:33:00,79.0,53.0,-100.00,North,1,-999.0,-999.0,40,-99.99,,,-99.99,,2013-05-29 23:33:00,
2013-05-29 16:42:00,79.0,53.0,-100.00,North,1,-999.0,-999.0,40,-99.99,,,-99.99,,2013-05-29 23:42:00,
2013-05-29 16:52:00,79.0,53.0,-100.00,North,355,-999.0,-999.0,41,-99.99,,,-99.99,,2013-05-29 23:52:00,
2013-05-29 17:01:00,79.0,53.0,-100.00,North,355,-999.0,-999.0,41,-99.99,,,-99.99,,2013-05-30 00:01:00,
2013-05-29 17:11:00,79.0,53.0,-100.00,North,355,-999.0,-999.0,41,-99.99,,,-99.99,,2013-05-30 00:11:00,
2013-05-29 17:21:00,78.0,54.0,-100.00,North,350,-999.0,-999.0,43,-99.99,,,-99.99,,2013-05-30 00:21:00,
2013-05-29 17:31:00,78.0,54.0,-100.00,North,350,-999.0,-999.0,43,-99.99,,,-99.99,,2013-05-30 00:31:00,
2013-05-29 17:41:00,78.0,54.0,-100.00,North,350,-999.0,-999.0,43,-99.99,,,-99.99,,2013-05-30 00:41:00,
2013-05-29 17:52:00,79.0,55.0,-100.00,North,360,-999.0,-999.0,44,-99.99,,,-99.99,,2013-05-30 00:52:00,
2013-05-29 18:01:00,79.0,55.0,-100.00,North,360,-999.0,-999.0,44,-99.99,,,-99.99,,2013-05-30 01:01:00,
2013-05-29 18:11:00,79.0,55.0,-100.00,North,360,-999.0,-999.0,44,-99.99,,,-99.99,,2013-05-30 01:11:00,
2013-05-29 18:21:00,78.0,53.0,-100.00,NW,325,-999.0,-999.0,42,-99.99,,,-99.99,,2013-05-30 01:21:00,
2013-05-29 18:31:00,78.0,53.0,-100.00,NW,325,-999.0,-999.0,42,-99.99,,,-99.99,,2013-05-30 01:31:00,
2013-05-29 18:41:00,78.0,53.0,-100.00,NW,325,-999.0,-999.0,42,-99.99,,,-99.99,,2013-05-30 01:41:00,
2013-05-29 18:52:00,78.0,54.0,-100.00,North,352,-999.0,-999.0,43,-99.99,,,-99.99,,2013-05-30 01:52:00,
2013-05-29 19:01:00,78.0,54.0,-100.00,North,352,-999.0,-999.0,43,-99.99,,,-99.99,,2013-05-30 02:01:00,
2013-05-29 19:11:00,78.0,54.0,-100.00,North,352,-999.0,-999.0,43,-99.99,,,-99.99,,2013-05-30 02:11:00,
2013-05-29 19:21:00,78.0,52.0,-100.00,North,356,-999.0,-999.0,40,-99.99,,,-99.99,,2013-05-30 02:21:00,
2013-05-29 19:32:00,78.0,52.0,-100.00,North,356,-999.0,-999.0,40,-99.99,,,-99.99,,2013-05-30 02:32:00,
2013-05-29 19:42:00,78.0,52.0,-100.00,North,356,-999.0,-999.0,40,-99.99,,,-99.99,,2013-05-30 02:42:00,
2013-05-29 19:52:00,78.0,52.0,-100.00,North,356,-999.0,-999.0,40,-99.99,,,-99.99,,2013-05-30 02:52:00,
2013-05-29 20:21:00,78.0,50.0,-100.00,SW,228,-999.0,-999.0,38,-99.99,,,-99.99,,2013-05-30 03:21:00,
2013-05-29 20:53:00,77.0,49.0,-100.00,NNE,15,-999.0,-999.0,38,-99.99,,,-99.99,,2013-05-30 03:53:00,
2013-05-29 21:23:00,78.0,50.0,-100.00,NE,55,-999.0,-999.0,38,-99.99,,,-99.99,,2013-05-30 04:23:00,
2013-05-29 21:53:00,77.0,46.0,-100.00,North,0,-999.0,-999.0,34,-99.99,,,-99.99,,2013-05-30 04:53:00,
2013-05-29 22:02:00,77.0,46.0,-100.00,North,0,-999.0,-999.0,34,-99.99,,,-99.99,,2013-05-30 05:02:00,
2013-05-29 22:12:00,77.0,46.0,-100.00,North,0,-999.0,-999.0,34,-99.99,,,-99.99,,2013-05-30 05:12:00,
2013-05-29 22:21:00,76.0,46.0,-100.00,NE,48,-999.0,-999.0,35,-99.99,,,-99.99,,2013-05-30 05:21:00,
2013-05-29 22:32:00,76.0,46.0,-100.00,NE,48,-999.0,-999.0,35,-99.99,,,-99.99,,2013-05-30 05:32:00,
2013-05-29 22:42:00,76.0,46.0,-100.00,NE,48,-999.0,-999.0,35,-99.99,,,-99.99,,2013-05-30 05:42:00,
2013-05-29 22:52:00,73.0,46.0,-100.00,NNE,33,-999.0,-999.0,38,-99.99,,,-99.99,,2013-05-30 05:52:00,
2013-05-29 23:01:00,73.0,46.0,-100.00,NNE,33,-999.0,-999.0,38,-99.99,,,-99.99,,2013-05-30 06:01:00,
2013-05-29 23:12:00,73.0,46.0,-100.00,NNE,33,-999.0,-999.0,38,-99.99,,,-99.99,,2013-05-30 06:12:00,
2013-05-29 23:21:00,71.0,46.0,-100.00,ENE,59,-999.0,-999.0,41,-99.99,,,-99.99,,2013-05-30 06:21:00,
2013-05-29 23:32:00,71.0,46.0,-100.00,ENE,59,-999.0,-999.0,41,-99.99,,,-99.99,,2013-05-30 06:32:00,
2013-05-29 23:42:00,71.0,46.0,-100.00,ENE,59,-999.0,-999.0,41,-99.99,,,-99.99,,2013-05-30 06:42:00,
2013-05-29 23:52:00,69.0,47.0,-100.00,North,-999,-999.0,-999.0,45,-99.99,,,-99.99,,2013-05-30 06:52:00,